Cloud_Cover
100 100 98 72 8 5 97 100 85 100 100 72 10 24 74 99 67 99 100 100 99 90 100 90 18 10 14 8 12 35 2 13 81 1 0 1 1 0
100 100 99 71 43 60 100 100 97 96 100 98 66 100 100 99 100 100 100 100 96 100 100 89 63 42 11 88 100 61 6 84 5 0 0 0 0 0
94 100 100 100 80 98 100 100 100 100 100 100 100 100 100 98 100 100 100 100 88 100 100 100 98 92 95 30 42 4 7 93 1 0 0 0 0 0
85 100 100 100 100 100 100 100 100 100 100 100 100 100 100 100 100 100 100 100 95 100 100 100 91 8 5 91 4 25 100 0 0 0 0 0 0 0
100 98 92 100 100 100 99 96 86 99 99 100 100 100 100 100 100 100 100 100 100 100 92 100 99 5 5 0 7 100 28 0 0 0 0 0 0 0
93 78 43 86 52 44 5 79 100 100 100 100 100 100 100 100 99 91 100 100 96 94 88 79 7 6 5 5 43 74 4 0 0 0 0 0 1 0
97 92 100 100 100 84 100 100 100 100 100 100 100 100 45 76 100 100 100 100 100 89 85 54 42 16 3 5 81 95 57 4 0 2 0 0 0 0
45 70 99 100 100 100 100 100 100 100 100 100 100 87 90 100 100 100 93 100 100 92 20 5 5 23 11 61 93 100 83 4 3 5 0 0 4 5
98 43 98 100 100 100 100 100 100 100 100 97 89 98 23 6 4 8 91 52 34 15 90 50 34 56 5 19 100 100 24 1 5 5 1 5 5 5
97 100 100 93 100 100 100 100 73 86 94 92 8 5 5 5 5 35 13 30 41 18 5 23 68 100 94 59 99 100 87 8 44 5 5 5 5 14
100 99 100 100 100 100 100 73 49 9 5 5 5 5 10 5 41 23 5 46 26 5 5 82 89 99 100 100 100 100 100 60 16 5 48 69 5 5
100 100 100 100 21 83 50 5 5 5 5 5 5 38 56 5 5 5 5 5 5 6 49 46 86 34 97 100 100 100 100 73 5 5 98 5 5 4
100 100 100 100 100 100 94 75 94 73 9 5 11 53 54 12 5 7 5 5 5 48 5 6 100 94 91 94 100 100 100 5 11 6 25 8 5 3
100 100 100 100 100 100 94 86 62 6 5 5 51 48 50 5 27 92 5 5 9 66 6 6 100 100 96 69 100 100 99 31 86 81 5 5 0 2
100 100 100 100 100 51 31 38 5 5 5 5 35 60 5 5 5 5 5 5 10 91 5 5 97 100 89 67 86 11 15 40 98 100 17 4 0 0
100 100 100 92 100 9 59 57 35 5 5 5 46 66 11 28 5 5 5 5 43 97 5 9 99 100 100 100 94 6 31 36 52 9 5 4 2 0
100 94 71 98 100 100 100 100 52 66 8 8 84 26 13 5 31 26 5 5 52 61 72 5 66 98 100 100 99 5 39 13 7 5 5 0 0 0
100 82 96 100 100 100 100 100 95 43 28 70 98 87 62 64 49 41 11 6 95 62 91 95 97 85 100 100 82 5 99 6 8 16 4 0 0 0
100 100 100 100 100 100 100 100 100 100 100 100 98 96 98 63 47 75 87 49 100 82 5 6 100 100 100 100 100 99 100 100 31 50 1 0 0 0
100 100 100 100 100 100 100 100 88 97 100 94 99 99 100 82 60 67 100 84 87 100 86 63 85 100 100 100 100 100 100 92 13 5 1 0 0 0
100 100 100 100 100 100 100 100 100 100 100 100 100 100 100 90 76 98 95 100 87 91 69 8 19 100 100 100 100 100 100 51 5 3 0 0 2 2
99 100 100 100 100 100 100 100 100 100 100 100 100 100 100 100 71 100 89 100 83 86 6 69 39 100 100 100 100 100 100 98 12 5 0 0 13 5
56 61 93 100 100 100 100 100 100 100 100 100 100 100 100 100 98 97 100 98 72 82 74 90 100 100 100 100 100 100 100 51 12 4 2 0 0 0